CW3151 Weather Reports


time (UTC)temp
C
wind
direction
speed
KPH
gust
KPH
rain 1hr
cm
rain 24hr
cm
rain mn
cm
humidity
%
barometer
mb
20260503213330 16 84 0.0 3.2 0.00 0.00 0.00 46 1016.9
20260503211828 16 119 0.0 3.2 0.00 0.00 0.00 44 1017.2
20260503210312 16 121 0.0 4.8 0.00 0.00 0.00 46 1017.2
20260503204811 16 120 1.6 4.8 0.00 0.00 0.00 45 1017.3
20260503203315 16 122 3.2 4.8 0.00 0.00 0.00 46 1017.6
20260503201813 16 105 1.6 4.8 0.00 0.00 0.00 45 1017.5
20260503200316 16 136 0.0 3.2 0.00 0.00 0.00 44 1017.9
20260503194815 16 186 0.0 3.2 0.00 0.00 0.00 44 1018.0
20260503193339 16 109 1.6 1.6 0.00 0.00 0.00 44 1018.3
20260503191816 16 139 1.6 4.8 0.00 0.00 0.00 44 1018.5
20260503190335 15 109 0.0 1.6 0.00 0.00 0.00 45 1018.8
20260503184817 15 109 1.6 3.2 0.00 0.00 0.00 45 1018.9
20260503183316 15 109 0.0 1.6 0.00 0.00 0.00 42 1019.0
20260503181819 16 109 0.0 3.2 0.00 0.00 0.00 44 1019.2
20260503180339 16 108 1.6 4.8 0.00 0.00 0.00 42 1019.2
20260503174821 16 83 0.0 3.2 0.00 0.00 0.00 42 1019.3
20260503173319 16 82 0.0 1.6 0.00 0.00 0.00 39 1019.4
20260503171823 15 86 0.0 1.6 0.00 0.00 0.00 42 1019.8
20260503170322 15 98 0.0 4.8 0.00 0.00 0.00 43 1020.0
20260503150323 11 85 0.0 3.2 0.00 0.00 0.00 55 1021.0
20260503130323 8 87 0.0 1.6 0.00 0.00 0.00 67 1020.7
20260503110348 3 26 0.0 0.0 0.00 0.00 0.00 85 1019.9
20260503090325 3 26 0.0 0.0 0.00 0.00 0.00 85 1018.6
20260503080348 3 26 0.0 0.0 0.00 0.00 0.00 82 1018.0
20260503071847 4 26 0.0 0.0 0.00 0.00 0.00 79 1017.7
20260503070329 5 26 0.0 0.0 0.00 0.00 0.00 78 1017.5
20260503060312 5 26 0.0 0.0 0.00 0.00 0.00 77 1017.4
20260503054830 5 26 0.0 0.0 0.00 0.00 0.00 77 1017.4
20260503053313 5 26 0.0 0.0 0.00 0.00 0.00 75 1017.4
20260503051812 5 26 0.0 0.0 0.00 0.00 0.00 73 1017.6
20260503050335 5 26 0.0 0.0 0.00 0.00 0.00 72 1017.6
20260503044813 6 26 0.0 0.0 0.00 0.00 0.00 71 1017.5
20260503043315 6 26 0.0 0.0 0.00 0.00 0.00 69 1017.4
20260503041814 7 26 0.0 0.0 0.00 0.00 0.00 68 1017.2
20260503040313 7 26 0.0 0.0 0.00 0.00 0.00 67 1017.1
20260503034836 7 26 0.0 1.6 0.00 0.00 0.00 67 1017.0
20260503033336 7 26 0.0 0.0 0.00 0.00 0.00 66 1016.9
20260503031817 7 26 0.0 1.6 0.00 0.00 0.00 64 1016.7
20260503030336 8 26 0.0 1.6 0.00 0.00 0.00 64 1016.6
20260503024818 8 26 0.0 1.6 0.00 0.00 0.00 62 1016.6
20260503023316 8 26 0.0 1.6 0.00 0.00 0.00 60 1016.4
20260503021815 8 26 0.0 1.6 0.00 0.00 0.00 62 1016.3
20260503020339 8 26 0.0 3.2 0.00 0.00 0.00 59 1016.3
20260503014816 9 304 0.0 0.0 0.00 0.00 0.00 59 1016.1
20260503013319 10 304 0.0 0.0 0.00 0.00 0.00 57 1015.8
20260503011818 10 304 0.0 0.0 0.00 0.00 0.00 57 1015.6
20260503010321 10 304 0.0 3.2 0.00 0.00 0.00 52 1015.4
20260503004819 11 304 1.6 3.2 0.00 0.00 0.00 49 1015.1
20260503003322 11 304 0.0 3.2 0.00 0.00 0.00 49 1014.9
20260503001840 11 304 1.6 3.2 0.00 0.00 0.00 49 1014.7
20260503000319 12 304 0.0 3.2 0.00 0.00 0.00 47 1014.3
20260502234821 12 334 0.0 3.2 0.00 0.00 0.00 46 1014.1
20260502233316 12 334 1.6 3.2 0.00 0.00 0.00 46 1014.1
20260502231818 12 327 1.6 3.2 0.00 0.00 0.00 45 1013.8
20260502230318 12 25 0.0 3.2 0.00 0.00 0.00 45 1013.6
20260502224821 12 113 1.6 4.8 0.00 0.00 0.00 44 1013.6
20260502223319 13 101 1.6 4.8 0.00 0.00 0.00 42 1013.5
20260502221841 13 107 1.6 3.2 0.00 0.00 0.00 44 1013.4
20260502220340 13 68 1.6 4.8 0.00 0.00 0.00 41 1013.3
20260502214817 14 258 1.6 4.8 0.00 0.00 0.00 40 1013.1